Rome, GA

12:45 PM EDT on June 26, 2017 (GMT -0400)
Russell

Weather History for KRMG - October, 2011

Change the Weather History Date:

Wednesday, October 19, 2011

  Actual Average Record
Temperature  
Mean Temperature 58 °F 60 °F  
Max Temperature 64 °F 73 °F 91 °F (2005)
Min Temperature 46 °F 47 °F 35 °F (2015)
Degree Days  
Heating Degree Days 7 6  
Month to date heating degree days 69  
Since 1 July heating degree days 83  
Cooling Degree Days 0 1  
Month to date cooling degree days 35  
Year to date cooling degree days 1625  
Growing Degree Days 8 (Base 50)    
Moisture  
Dew Point 48 °F    
Average Humidity 81    
Maximum Humidity 94    
Minimum Humidity 62    
Precipitation  
Precipitation 0.54 in 0.12 in 1.85 in (2004)
Month to date precipitation 2.43  
Year to date precipitation 41.26  
Sea Level Pressure  
Sea Level Pressure 29.58 in    
Wind  
Wind Speed 7 mph (West)    
Max Wind Speed 14 mph    
Max Gust Speed 22 mph    
Visibility 9 miles    
Events Rain    
T = Trace of Precipitation, MM = Missing Value Source: NWS Daily Summary

Daily Weather History Graph

Daily Weather History Graph

Search for Another Location

Airport or City:

Trip Planner

Search our weather history database for the weather conditions in past years. The results will help you decide how hot, cold, wet, or windy it might be!

Date:

Astronomy

Oct. 19, 2011 Rise Set
Actual Time 7:49 AM EDT 7:01 PM EDT
Civil Twilight 7:23 AM EDT 7:27 PM EDT
Nautical Twilight 6:54 AM EDT 7:56 PM EDT
Astronomical Twilight 6:25 AM EDT 8:25 PM EDT
Moon No Moon Rise 2:12 PM EDT (10/19)
Length of Visible Light 12h 03m
Length of Day
11h 12m
Waning Gibbous, 55% of the Moon is Illuminated
Oct 19
Waning Gibbous
Oct 19
Last Quarter
Oct 26
New
Nov 2
First Quarter
Nov 10
Full

Hourly Weather History & Observations

Time (EDT) Temp. Dew Point Humidity Pressure Visibility Wind Dir Wind Speed Gust Speed Precip Events Conditions
12:12 AM 68.0 °F 64.4 °F 88% 29.53 in 4.0 mi West 8.1 mph - 0.01 in Rain Heavy Rain
12:15 AM 66.2 °F 64.4 °F 94% 29.54 in 1.5 mi West 10.4 mph 18.4 mph 0.03 in Rain Heavy Rain
12:23 AM 64.4 °F 62.6 °F 94% 29.53 in 0.8 mi WNW 5.8 mph 18.4 mph 0.35 in Rain Rain
12:27 AM 64.4 °F 62.6 °F 94% 29.53 in 2.5 mi WSW 5.8 mph - 0.36 in Rain Rain
12:34 AM 64.4 °F 62.6 °F 94% 29.52 in 3.0 mi WNW 4.6 mph - N/A Rain Light Rain
12:46 AM 64.4 °F 62.6 °F 94% 29.52 in 10.0 mi Calm Calm - 0.40 in   Overcast
12:53 AM 64.0 °F 62.1 °F 93% 29.49 in 9.0 mi Variable 3.5 mph - 0.40 in Rain Light Rain
1:19 AM 64.4 °F 60.8 °F 88% 29.52 in 10.0 mi Calm Calm - 0.03 in Rain Light Rain
1:30 AM 64.4 °F 60.8 °F 88% 29.52 in 8.0 mi SW 3.5 mph - 0.03 in Rain Light Rain
1:46 AM 62.6 °F 60.8 °F 94% 29.52 in 2.5 mi WNW 5.8 mph - 0.06 in Rain Light Rain
1:49 AM 62.6 °F 60.8 °F 94% 29.52 in 3.0 mi WNW 3.5 mph - 0.07 in Rain Light Rain
1:53 AM 63.0 °F 61.0 °F 93% 29.49 in 4.0 mi WNW 3.5 mph - 0.07 in Rain Light Rain
2:22 AM 62.6 °F 59.0 °F 88% 29.52 in 10.0 mi West 9.2 mph - 0.01 in   Overcast
2:35 AM 60.8 °F 57.2 °F 88% 29.52 in 10.0 mi WNW 8.1 mph - 0.01 in   Overcast
2:42 AM 60.8 °F 57.2 °F 88% 29.51 in 10.0 mi West 10.4 mph - 0.01 in   Overcast
2:51 AM 60.8 °F 57.2 °F 88% 29.52 in 10.0 mi WNW 6.9 mph - 0.01 in   Overcast
2:53 AM 60.8 °F 57.2 °F 88% 29.52 in 10.0 mi WNW 9.2 mph - N/A   Overcast
3:17 AM 57.2 °F 55.4 °F 94% 29.51 in 9.0 mi West 6.9 mph - N/A   Overcast
3:31 AM 57.2 °F 53.6 °F 88% 29.52 in 9.0 mi West 6.9 mph - N/A   Overcast
3:43 AM 57.2 °F 53.6 °F 88% 29.51 in 8.0 mi WNW 4.6 mph - N/A   Overcast
3:53 AM 57.0 °F 53.1 °F 87% 29.49 in 8.0 mi West 8.1 mph - N/A   Overcast
4:53 AM 54.0 °F 48.9 °F 83% 29.49 in 10.0 mi WNW 9.2 mph 16.1 mph N/A   Overcast
5:00 AM 53.6 °F 48.2 °F 82% 29.52 in 10.0 mi WNW 8.1 mph 17.3 mph N/A   Overcast
5:14 AM 53.6 °F 48.2 °F 82% 29.52 in 10.0 mi WNW 8.1 mph - N/A   Overcast
5:53 AM 51.1 °F 46.9 °F 86% 29.52 in 5.0 mi West 9.2 mph - 0.07 in Rain Light Rain
6:53 AM 50.0 °F 46.4 °F 87% 29.54 in 10.0 mi West 5.8 mph - N/A   Overcast
7:53 AM 48.9 °F 45.0 °F 86% 29.52 in 10.0 mi Variable 5.8 mph - N/A   Overcast
8:22 AM 48.2 °F 44.6 °F 87% 29.55 in 10.0 mi West 9.2 mph - N/A   Overcast
8:53 AM 48.0 °F 45.0 °F 89% 29.55 in 6.0 mi West 6.9 mph - 0.00 in Rain Light Rain
9:35 AM 48.2 °F 44.6 °F 87% 29.57 in 8.0 mi West 8.1 mph - 0.00 in   Overcast
9:53 AM 48.0 °F 44.1 °F 86% 29.55 in 10.0 mi West 8.1 mph - 0.00 in   Overcast
10:27 AM 48.2 °F 42.8 °F 82% 29.57 in 10.0 mi West 6.9 mph - N/A   Overcast
10:53 AM 48.0 °F 43.0 °F 83% 29.55 in 10.0 mi WSW 10.4 mph - N/A   Overcast
11:06 AM 48.2 °F 42.8 °F 82% 29.57 in 10.0 mi WNW 11.5 mph 19.6 mph N/A   Overcast
11:33 AM 48.2 °F 42.8 °F 82% 29.57 in 10.0 mi West 9.2 mph 16.1 mph N/A   Overcast
11:53 AM 48.0 °F 42.1 °F 80% 29.57 in 10.0 mi West 10.4 mph 18.4 mph N/A   Overcast
12:03 PM 48.2 °F 42.8 °F 82% 29.58 in 10.0 mi West 12.7 mph 17.3 mph N/A   Overcast
12:53 PM 48.9 °F 41.0 °F 74% 29.57 in 10.0 mi WNW 9.2 mph 18.4 mph N/A   Overcast
1:53 PM 48.9 °F 41.0 °F 74% 29.57 in 10.0 mi West 8.1 mph - N/A   Overcast
2:53 PM 50.0 °F 39.9 °F 68% 29.57 in 10.0 mi WNW 6.9 mph - N/A   Overcast
3:14 PM 51.8 °F 39.2 °F 62% 29.60 in 10.0 mi West 10.4 mph - N/A   Overcast
3:27 PM 51.8 °F 39.2 °F 62% 29.60 in 10.0 mi WNW 8.1 mph 19.6 mph N/A   Overcast
3:53 PM 51.1 °F 39.0 °F 63% 29.59 in 10.0 mi WNW 10.4 mph 18.4 mph N/A   Overcast
4:02 PM 50.0 °F 39.2 °F 66% 29.61 in 10.0 mi West 8.1 mph 18.4 mph N/A   Overcast
4:30 PM 51.8 °F 39.2 °F 62% 29.63 in 10.0 mi WNW 9.2 mph - N/A   Overcast
4:53 PM 51.1 °F 39.0 °F 63% 29.62 in 10.0 mi WNW 13.8 mph 19.6 mph N/A   Overcast
5:53 PM 50.0 °F 39.0 °F 66% 29.65 in 10.0 mi West 5.8 mph - N/A   Overcast
6:53 PM 48.9 °F 39.0 °F 69% 29.68 in 10.0 mi West 9.2 mph 18.4 mph N/A   Overcast
7:04 PM 48.2 °F 39.2 °F 71% 29.70 in 10.0 mi West 10.4 mph 18.4 mph N/A   Overcast
7:53 PM 48.0 °F 39.9 °F 74% 29.72 in 10.0 mi West 11.5 mph 17.3 mph N/A   Overcast
8:16 PM 48.2 °F 39.2 °F 71% 29.73 in 10.0 mi West 10.4 mph 19.6 mph 0.00 in   Overcast
8:53 PM 48.0 °F 39.0 °F 71% 29.73 in 10.0 mi West 11.5 mph 16.1 mph 0.00 in   Overcast
9:17 PM 48.2 °F 39.2 °F 71% 29.74 in 10.0 mi West 9.2 mph 21.9 mph N/A   Overcast
9:25 PM 48.2 °F 39.2 °F 71% 29.74 in 10.0 mi West 11.5 mph 16.1 mph N/A   Overcast
9:46 PM 48.2 °F 39.2 °F 71% 29.75 in 10.0 mi West 5.8 mph - N/A   Overcast
9:53 PM 48.0 °F 39.0 °F 71% 29.74 in 10.0 mi West 5.8 mph - N/A   Overcast
10:53 PM 48.0 °F 39.9 °F 74% 29.75 in 10.0 mi WSW 5.8 mph - N/A   Overcast
11:53 PM 46.9 °F 41.0 °F 80% 29.76 in 10.0 mi WSW 5.8 mph - 0.00 in Rain Light Rain